Philadelphia, PA

8:16 AM EST on November 13, 2019 (GMT -0500)
Philadelphia International

Weather History for KPHL - May, 2019

Change the Weather History Date:

Thursday, May 9, 2019

  Actual Average Record
Temperature  
Mean Temperature 62 °F 62 °F  
Max Temperature 66 °F 72 °F 93 °F (1936)
Min Temperature 57 °F 52 °F 33 °F (1947)
Degree Days  
Heating Degree Days 3 5  
Month to date heating degree days 24 51  
Since 1 July heating degree days 4309 4541  
Cooling Degree Days 0 1  
Month to date cooling degree days 4 9  
Year to date cooling degree days 28 22  
Growing Degree Days 12 (Base 50)    
Moisture  
Dew Point 54 °F    
Average Humidity 75    
Maximum Humidity 86    
Minimum Humidity 63    
Precipitation  
Precipitation 0.02 in 0.11 in 1.57 in (2008)
Month to date precipitation 1.68 1.00  
Year to date precipitation 15.74 14.03  
Snow  
Snow 0.00 in 0.00 in 0.00 in ()
Month to date snowfall 0.0 0.0  
Since 1 July snowfall 17.1 22.4  
Snow Depth 0.00 in    
Sea Level Pressure  
Sea Level Pressure 30.23 in    
Wind  
Wind Speed 10 mph (East)    
Max Wind Speed 16 mph    
Max Gust Speed 22 mph    
Visibility 10 miles    
Events Rain    
T = Trace of Precipitation, MM = Missing Value Source: NWS Daily Summary

Daily Weather History Graph

Daily Weather History Graph

Search for Another Location

Airport or City:

Astronomy

May. 09, 2019 Rise Set
Actual Time 5:52 AM EDT 8:03 PM EDT
Civil Twilight 5:22 AM EDT 8:33 PM EDT
Nautical Twilight 4:45 AM EDT 9:10 PM EDT
Astronomical Twilight 4:05 AM EDT 9:50 PM EDT
Moon 9:45 AM EDT (5/9) No Moon Set
Length of Visible Light 15h 10m
Length of Day
14h 10m
Waxing Crescent, 24% of the Moon is Illuminated
May 9
Waxing Crescent
May 11
First Quarter
May 18
Full
May 26
Last Quarter
Jun 3
New

Hourly Weather History & Observations

Time (EDT) Temp. Dew Point Humidity Pressure Visibility Wind Dir Wind Speed Gust Speed Precip Events Conditions
12:54 AM 60.1 °F 53.1 °F 78% 30.25 in 10.0 mi East 4.6 mph - N/A   Overcast
1:54 AM 60.1 °F 54.0 °F 80% 30.25 in 10.0 mi East 6.9 mph - N/A   Overcast
2:54 AM 57.9 °F 54.0 °F 87% 30.25 in 10.0 mi ENE 6.9 mph - N/A   Overcast
3:54 AM 57.9 °F 53.1 °F 84% 30.25 in 10.0 mi ENE 6.9 mph - N/A   Overcast
4:54 AM 57.0 °F 53.1 °F 87% 30.24 in 10.0 mi ENE 8.1 mph - N/A   Overcast
5:54 AM 57.0 °F 53.1 °F 87% 30.26 in 10.0 mi East 9.2 mph - N/A   Overcast
6:54 AM 57.0 °F 53.1 °F 87% 30.27 in 10.0 mi East 10.4 mph - 0.00 in   Overcast
7:02 AM 57.0 °F 53.1 °F 87% 30.27 in 10.0 mi East 9.2 mph - N/A   Overcast
7:54 AM 57.0 °F 53.1 °F 87% 30.28 in 10.0 mi East 10.4 mph - N/A   Overcast
8:48 AM 57.2 °F 53.6 °F 88% 30.28 in 10.0 mi East 11.5 mph - 0.00 in   Overcast
8:54 AM 57.0 °F 54.0 °F 89% 30.28 in 10.0 mi ENE 12.7 mph - 0.00 in   Overcast
9:02 AM 57.0 °F 54.0 °F 89% 30.27 in 10.0 mi East 13.8 mph - N/A   Overcast
9:54 AM 57.0 °F 53.1 °F 87% 30.27 in 10.0 mi East 9.2 mph - N/A   Overcast
10:04 AM 57.0 °F 53.1 °F 87% 30.27 in 10.0 mi ENE 13.8 mph - N/A   Overcast
10:54 AM 57.9 °F 53.1 °F 84% 30.26 in 10.0 mi East 11.5 mph - N/A   Overcast
11:54 AM 59.0 °F 54.0 °F 83% 30.25 in 10.0 mi East 10.4 mph - 0.00 in Rain Light Rain
12:03 PM 59.0 °F 54.0 °F 83% 30.24 in 6.0 mi East 8.1 mph - 0.00 in Rain Light Rain
12:25 PM 57.9 °F 54.0 °F 87% 30.25 in 7.0 mi East 9.2 mph - 0.01 in Rain Light Rain
12:33 PM 59.0 °F 55.0 °F 87% 30.25 in 10.0 mi East 9.2 mph - 0.01 in   Overcast
12:49 PM 59.0 °F 53.6 °F 82% 30.25 in 8.0 mi East 12.7 mph - 0.01 in Rain Light Rain
12:54 PM 57.9 °F 53.1 °F 84% 30.25 in 8.0 mi East 11.5 mph - 0.01 in Rain Light Rain
1:03 PM 57.9 °F 53.1 °F 84% 30.25 in 10.0 mi East 11.5 mph - 0.00 in Rain Light Rain
1:12 PM 59.0 °F 53.1 °F 81% 30.25 in 7.0 mi East 10.4 mph - 0.00 in Rain Light Rain
1:28 PM 57.9 °F 53.1 °F 84% 30.26 in 10.0 mi East 10.4 mph - 0.01 in Rain Light Rain
1:54 PM 60.1 °F 54.0 °F 80% 30.25 in 10.0 mi ENE 6.9 mph - 0.01 in   Overcast
2:54 PM 62.1 °F 54.0 °F 75% 30.24 in 10.0 mi East 9.2 mph - N/A   Overcast
3:54 PM 63.0 °F 53.1 °F 70% 30.22 in 10.0 mi East 12.7 mph - N/A   Overcast
4:54 PM 66.0 °F 53.1 °F 63% 30.20 in 10.0 mi ESE 13.8 mph 21.9 mph N/A   Overcast
5:14 PM 64.9 °F 54.0 °F 68% 30.19 in 10.0 mi ESE 15.0 mph - N/A   Mostly Cloudy
5:54 PM 64.0 °F 53.1 °F 67% 30.19 in 10.0 mi ESE 12.7 mph - N/A   Mostly Cloudy
6:54 PM 64.0 °F 54.0 °F 70% 30.18 in 10.0 mi East 13.8 mph - N/A   Mostly Cloudy
7:54 PM 61.0 °F 53.1 °F 75% 30.18 in 10.0 mi East 9.2 mph - N/A   Mostly Cloudy
8:36 PM 60.1 °F 53.1 °F 78% 30.19 in 10.0 mi East 9.2 mph - N/A   Mostly Cloudy
8:54 PM 60.1 °F 53.1 °F 78% 30.19 in 10.0 mi East 10.4 mph - N/A   Mostly Cloudy
9:01 PM 60.1 °F 53.1 °F 78% 30.18 in 10.0 mi East 10.4 mph - N/A   Overcast
9:33 PM 60.1 °F 53.1 °F 78% 30.18 in 10.0 mi East 10.4 mph - N/A   Overcast
9:54 PM 60.1 °F 53.1 °F 78% 30.17 in 10.0 mi East 10.4 mph - N/A   Overcast
10:54 PM 60.1 °F 55.9 °F 86% 30.17 in 10.0 mi ESE 8.1 mph - N/A   Overcast
11:54 PM 60.1 °F 55.9 °F 86% 30.17 in 10.0 mi East 6.9 mph - N/A   Overcast